Date,TemperatureHighF,TemperatureAvgF,TemperatureLowF,DewpointHighF,DewpointAvgF,DewpointLowF,HumidityHigh,HumidityAvg,HumidityLow,PressureMaxIn,PressureMinIn,WindSpeedMaxMPH,WindSpeedAvgMPH,GustSpeedMaxMPH,PrecipitationSumIn
2013-1-13,47,38,32,28,19,-100,65,55,45,30.27,30.16,12,-21,0,0.00
2013-1-14,46,36,27,28,23,17,75,60,44,30.34,30.19,10,3,0,0.00
2013-1-15,36,33,30,29,26,17,83,74,57,30.37,30.19,10,2,0,0.00
2013-1-16,49,35,23,22,19,15,75,54,27,30.45,30.30,7,1,0,0.00
2013-1-17,61,44,28,35,30,22,82,60,35,30.58,30.43,11,1,0,0.00
2013-1-18,64,44,27,36,30,23,87,62,34,30.59,30.38,6,1,0,0.00
2013-1-19,66,46,33,45,37,28,92,71,42,30.38,30.22,9,1,0,0.00
2013-1-20,73,50,32,46,38,29,90,66,29,30.32,30.15,11,1,0,0.00
2013-1-21,68,52,36,53,43,33,93,73,49,30.30,30.20,4,0,0,0.00
2013-1-22,70,54,40,50,43,35,86,68,41,30.34,30.24,9,1,0,0.00
2013-1-23,72,57,44,56,49,40,91,77,54,30.37,30.24,11,2,0,0.00
2013-1-24,80,61,46,61,53,44,93,77,46,30.30,30.13,9,1,0,0.00
2013-1-25,78,64,52,60,56,46,91,76,47,30.16,30.05,6,2,0,0.01
2013-1-26,63,55,48,57,51,45,92,86,78,30.20,30.09,6,1,0,0.00
2013-1-27,76,66,58,62,58,54,89,79,58,30.12,29.96,11,4,0,0.00
2013-1-28,75,69,66,64,63,61,89,81,66,30.02,29.84,12,4,0,0.00
2013-1-29,80,65,50,64,50,18,91,63,28,29.83,29.53,16,5,0,0.01
2013-1-30,53,44,29,25,19,14,64,38,22,30.30,29.81,20,4,0,0.00
2013-1-31,66,45,27,26,22,17,70,45,20,30.39,30.26,10,1,0,0.00
2013-2-1,68,52,35,43,34,25,74,52,33,30.41,30.22,12,2,0,0.00
2013-2-2,73,57,40,52,44,36,90,64,40,30.35,30.20,5,1,0,0.00
2013-2-3,69,56,41,50,40,30,77,58,30,30.38,30.02,9,2,0,0.00
2013-2-4,75,60,47,57,51,43,87,72,45,30.01,29.82,6,2,0,0.01
2013-2-5,77,61,42,47,41,36,87,53,25,30.03,29.91,5,0,0,0.00
2013-2-6,76,64,57,58,54,44,89,72,53,30.00,29.83,7,2,0,0.00
2013-2-7,80,65,54,60,50,36,92,64,25,30.12,29.90,13,2,0,0.01
2013-2-8,66,54,44,42,33,27,71,47,26,30.26,30.11,17,2,0,0.00
2013-2-9,66,57,49,63,52,29,93,85,45,30.12,29.81,11,3,0,0.00
2013-2-10,66,58,52,63,37,24,93,49,24,30.05,29.79,10,2,0,0.51
2013-2-11,56,52,47,45,40,33,90,67,43,30.11,30.00,11,2,0,0.05
2013-2-12,69,54,40,54,40,23,93,64,23,30.14,29.89,11,3,0,0.01
2013-2-13,59,44,31,33,29,25,85,59,28,30.22,30.09,5,1,0,0.00
2013-2-14,70,49,32,38,32,26,85,58,26,30.20,30.06,7,1,0,0.00
2013-2-15,56,45,34,38,33,23,80,62,49,30.47,30.14,14,2,0,0.00
2013-2-16,64,45,26,29,25,20,80,51,25,30.54,30.28,5,1,0,0.00
2013-2-17,68,52,32,50,36,24,77,57,34,30.28,29.98,13,4,0,0.00
2013-2-18,78,64,51,56,41,23,82,51,14,30.12,29.87,13,4,0,0.00
2013-2-19,64,54,44,31,28,25,55,38,24,30.28,30.09,16,4,0,0.00
2013-2-20,65,55,49,61,48,22,94,79,29,30.11,29.66,15,4,0,0.01
2013-2-21,72,61,44,62,37,22,89,48,16,29.91,29.61,15,3,0,0.01
2013-2-22,61,47,39,36,32,26,83,56,34,30.10,29.92,6,2,0,0.00
2013-2-23,70,50,32,38,29,25,79,50,19,30.14,29.93,11,1,0,0.00
2013-2-24,71,56,36,55,45,31,85,67,47,29.95,29.59,12,3,0,0.00
2013-2-25,61,50,40,57,31,21,85,50,28,29.93,29.59,18,7,0,0.00
2013-2-26,67,50,35,28,25,21,65,41,21,30.04,29.89,6,1,0,0.00
2013-2-27,58,48,40,32,24,18,65,40,30,30.31,29.91,15,3,0,0.00
2013-2-28,58,44,32,29,24,19,63,46,25,30.40,30.27,13,2,0,0.00
2013-3-1,66,48,26,28,21,14,74,41,14,30.39,30.22,12,2,0,0.00
2013-3-2,62,47,37,30,27,23,67,46,30,30.48,30.31,15,1,0,0.00
2013-3-3,74,57,35,39,30,25,70,41,22,30.32,29.93,14,3,0,0.00
2013-3-4,91,66,50,47,38,25,78,43,11,29.94,29.73,9,2,0,0.00
2013-3-5,66,51,33,40,22,11,62,36,17,30.43,29.80,18,4,0,0.00
2013-3-6,62,46,31,20,17,13,55,33,17,30.51,30.24,10,1,0,0.00
2013-3-7,69,55,36,54,41,20,85,60,48,30.28,30.13,14,3,0,0.00
2013-3-8,65,61,56,60,57,53,95,87,80,30.14,29.98,10,3,0,0.00
2013-3-9,73,64,56,64,60,51,92,86,71,29.97,29.64,13,4,0,1.16
2013-3-10,60,53,38,53,35,28,87,52,33,30.19,29.78,15,4,0,0.04
2013-3-11,67,47,32,35,28,21,79,52,24,30.26,30.07,8,1,0,0.00
2013-3-12,79,57,35,37,32,28,80,46,17,30.30,30.12,11,2,0,0.00
2013-3-13,76,60,42,41,36,31,68,44,26,30.46,30.30,11,2,0,0.00
2013-3-14,75,61,44,49,44,35,85,56,34,30.39,30.23,10,3,0,0.00
2013-3-15,79,65,52,53,49,43,86,60,36,30.25,29.99,13,3,0,0.00
2013-3-16,83,68,54,59,52,48,87,62,33,29.99,29.73,10,3,0,0.00
2013-3-17,86,71,62,61,57,51,82,65,29,29.80,29.63,11,2,0,0.00
2013-3-18,83,70,58,61,48,34,92,54,20,29.95,29.71,11,2,0,0.00
2013-3-19,83,65,44,61,51,39,87,63,37,30.05,29.83,15,2,0,0.21
2013-3-20,69,58,49,50,41,32,89,58,27,30.27,30.04,14,4,0,0.15
2013-3-21,70,62,54,57,49,32,82,63,38,30.04,29.63,14,4,0,0.00
2013-3-22,83,69,59,63,58,48,92,68,46,29.73,29.64,9,2,0,0.00
2013-3-23,87,64,49,59,49,39,87,64,20,29.79,29.59,14,2,0,0.00
2013-3-24,66,47,37,50,26,19,78,46,27,30.23,29.79,20,5,0,0.00
2013-3-25,57,44,33,22,18,12,53,36,20,30.47,30.23,10,2,0,0.00
2013-3-26,64,47,28,25,22,20,76,40,21,30.55,30.33,9,1,0,0.00
2013-3-27,66,54,41,46,37,22,74,54,36,30.35,30.18,11,3,0,0.00
2013-3-28,68,60,52,57,53,46,85,78,66,30.21,30.14,11,2,0,0.00
2013-3-29,74,65,55,57,55,52,89,72,55,30.18,30.06,10,3,0,0.00
2013-3-30,82,68,60,62,59,55,91,74,47,30.09,29.90,9,2,0,0.01
2013-3-31,79,67,56,64,59,51,89,77,55,30.00,29.86,7,1,0,0.03
2013-4-1,83,68,53,63,57,50,92,72,44,30.09,29.90,6,1,0,0.00
2013-4-2,72,64,48,63,59,45,92,83,70,30.00,29.84,11,2,0,0.53
2013-4-3,53,47,44,51,45,41,92,90,87,30.22,29.90,14,2,0,0.21
2013-4-4,64,49,42,44,40,37,92,73,49,30.32,30.17,9,2,0,0.01
2013-4-5,75,55,35,49,42,32,91,66,34,30.33,30.08,5,1,0,0.00
2013-4-6,78,63,48,58,52,44,88,67,49,30.08,29.87,12,3,0,0.00
2013-4-7,80,68,60,64,59,55,88,75,56,29.91,29.74,11,3,0,0.00
2013-4-8,75,67,63,65,62,59,90,83,71,29.81,29.64,15,3,0,0.00
2013-4-9,86,73,66,67,64,62,92,77,48,29.69,29.55,15,4,0,0.00
2013-4-10,71,52,39,65,44,35,86,74,58,30.03,29.63,12,4,0,0.01
2013-4-11,72,56,42,41,36,28,72,49,30,30.03,29.81,7,2,0,0.00
2013-4-12,80,61,40,49,42,36,85,55,29,30.04,29.87,9,1,0,0.00
2013-4-13,76,64,47,53,48,38,87,59,33,29.98,29.78,9,1,0,0.00
2013-4-14,91,73,56,64,57,51,90,62,31,29.81,29.60,9,2,0,0.00
2013-4-15,90,79,66,64,61,57,89,58,33,29.77,29.67,10,2,0,0.00
2013-4-16,87,75,65,67,64,60,87,70,49,29.84,29.75,10,2,0,0.00
2013-4-17,80,73,70,69,68,66,90,83,69,29.84,29.64,13,3,0,0.00
2013-4-18,72,59,48,69,46,31,91,64,40,30.16,29.62,16,4,0,0.07
2013-4-19,66,52,40,32,28,22,68,41,22,30.38,30.16,10,2,0,0.00
2013-4-20,72,55,34,44,33,28,78,47,25,30.27,30.01,9,2,0,0.00
2013-4-21,77,63,52,55,51,45,83,65,42,30.17,30.01,11,1,0,0.00
2013-4-22,81,68,58,61,56,53,87,68,45,30.10,29.87,11,2,0,0.00
2013-4-23,71,60,44,62,52,37,88,74,57,30.16,29.82,10,3,0,0.00
2013-4-24,59,49,41,37,34,30,78,57,40,30.34,30.17,12,3,0,0.00
2013-4-25,66,59,52,47,41,38,63,53,37,30.37,30.19,9,2,0,0.00
2013-4-26,76,66,56,65,60,48,92,80,66,30.18,30.03,6,1,0,0.00
2013-4-27,83,72,66,66,64,60,90,75,51,30.08,29.91,9,1,0,0.03
2013-4-28,84,72,60,63,59,55,92,68,38,30.00,29.84,9,1,0,0.01
2013-4-29,84,71,61,63,60,57,92,73,43,29.91,29.74,6,1,0,0.81
2013-4-30,83,69,58,65,61,56,94,78,50,29.83,29.71,5,0,0,0.01
2013-5-1,86,74,60,67,64,56,88,73,52,30.04,29.78,9,1,0,0.35
2013-5-2,61,49,44,58,42,34,90,79,66,30.43,29.94,16,4,0,0.39
2013-5-3,64,51,40,37,31,29,78,50,27,30.45,30.14,15,2,0,0.00
2013-5-4,82,60,38,43,36,32,81,47,17,30.14,29.92,5,0,0,0.00
2013-5-5,76,60,44,46,42,35,78,54,31,30.18,30.04,8,1,0,0.00
2013-5-6,74,59,45,53,47,41,87,65,42,30.18,30.04,4,0,0,0.00
2013-5-7,82,66,46,55,50,43,89,60,33,30.12,29.95,4,1,0,0.00
2013-5-8,76,68,61,64,60,55,86,75,65,29.99,29.87,7,1,0,0.00
2013-5-9,71,67,57,69,63,54,91,87,81,29.96,29.85,7,0,0,0.64
2013-5-10,83,67,58,64,59,56,93,77,48,30.07,29.86,0,0,0,0.32
2013-5-11,78,67,59,58,55,49,89,66,38,30.20,30.07,0,0,0,0.00
2013-5-12,78,64,52,54,50,47,84,62,37,30.29,30.14,0,0,0,0.00
2013-5-13,84,66,46,53,48,42,89,57,29,30.30,30.16,0,0,0,0.00
2013-5-14,85,71,56,65,57,51,88,65,33,30.23,29.98,0,0,0,0.00
2013-5-15,87,74,62,68,65,60,93,77,48,30.09,29.78,0,0,0,0.25
2013-5-16,92,80,71,72,68,65,86,70,48,29.82,29.68,0,0,0,0.00
2013-5-17,96,82,71,73,70,67,88,69,41,29.86,29.74,8,0,0,0.00
2013-5-18,91,79,70,71,67,64,86,67,48,29.88,29.75,11,1,0,0.00
2013-5-19,90,79,69,71,68,64,86,69,52,29.80,29.69,13,1,0,0.00
2013-5-20,91,79,70,72,68,65,87,70,48,29.80,29.64,14,2,0,0.00
2013-5-21,85,75,68,72,66,55,87,73,58,29.89,29.70,9,1,0,0.00
2013-5-22,91,75,53,68,58,49,87,59,34,29.94,29.80,6,0,0,0.00
2013-5-23,87,77,70,71,68,66,89,75,55,30.01,29.84,6,1,0,0.00
2013-5-24,75,69,66,69,65,61,93,87,78,30.12,29.98,9,1,0,0.47
2013-5-25,79,71,66,69,66,64,93,85,71,30.14,30.01,10,2,0,0.30
2013-5-26,83,73,69,72,68,63,89,82,65,30.07,29.96,4,0,0,0.01
2013-5-27,86,74,68,71,68,64,90,80,60,29.98,29.81,11,1,0,0.00
2013-5-28,85,76,69,69,67,64,84,74,57,29.87,29.73,17,2,0,0.00
2013-5-29,82,75,71,71,68,66,84,78,66,29.80,29.66,12,3,0,0.00
2013-5-30,86,77,72,72,69,66,90,77,59,29.82,29.73,11,1,0,0.00
2013-5-31,91,80,72,75,71,68,86,75,58,29.86,29.72,5,1,0,0.00
2013-6-1,93,82,73,74,71,68,84,71,49,29.91,29.75,5,1,0,0.00
2013-6-2,87,76,65,72,62,55,87,64,38,30.05,29.86,6,1,0,0.16
2013-6-3,91,76,59,68,62,56,90,66,44,29.99,29.82,6,1,0,0.00
2013-6-4,92,79,67,67,64,60,90,62,40,29.88,29.78,8,1,0,0.00
2013-6-5,93,79,68,67,65,62,87,64,40,29.85,29.73,8,1,0,0.00
2013-6-6,94,80,68,67,64,61,87,60,34,29.93,29.75,8,1,0,0.00
2013-6-7,78,71,61,62,60,56,83,71,55,30.02,29.88,3,0,0,0.00
2013-6-8,86,73,56,68,62,52,88,68,52,29.95,29.79,6,1,0,0.00
2013-6-9,91,77,68,70,67,64,89,74,47,29.96,29.82,6,0,0,0.42
2013-6-10,93,79,65,71,66,62,93,68,37,30.00,29.91,10,1,0,0.01
2013-6-11,91,80,72,69,68,67,88,70,45,30.01,29.93,12,1,0,0.00
2013-6-12,91,80,72,70,68,64,88,71,48,30.03,29.91,11,1,0,0.00
2013-6-13,91,77,70,71,69,64,89,77,50,30.05,29.93,5,0,0,0.05
2013-6-14,80,75,71,72,69,66,92,83,68,30.00,29.92,5,0,0,0.06
2013-6-15,87,78,72,72,70,66,92,78,53,30.00,29.90,5,0,0,0.02
2013-6-16,92,81,73,72,69,68,86,68,46,30.00,29.89,5,1,0,0.00
2013-6-17,94,82,72,72,69,68,86,67,46,29.98,29.82,4,0,0,0.00
2013-6-18,91,80,68,71,68,64,91,69,45,29.99,29.86,4,0,0,0.35
2013-6-19,93,82,71,70,67,63,89,63,41,29.95,29.88,11,1,0,0.00
2013-6-20,92,81,72,70,67,65,85,64,42,30.03,29.92,5,1,0,0.00
2013-6-21,92,82,73,70,67,61,83,62,41,30.04,29.94,13,1,0,0.00
2013-6-22,92,82,72,69,66,63,83,61,40,30.00,29.87,11,2,0,0.00
2013-6-23,91,81,71,68,66,60,85,61,39,29.95,29.85,13,1,0,0.00
2013-6-24,92,81,72,69,67,65,85,65,41,29.99,29.86,7,2,0,0.00
2013-6-25,96,84,74,70,67,63,80,61,39,29.97,29.83,9,2,0,0.00
2013-6-26,96,83,74,73,69,66,84,65,44,29.95,29.86,9,1,0,0.00
2013-6-27,99,84,72,70,63,54,84,55,23,30.00,29.89,4,0,0,0.01
2013-6-28,102,85,68,70,64,58,88,54,27,29.98,29.80,6,0,0,0.00
2013-6-29,104,88,69,67,62,60,72,45,25,29.87,29.72,4,0,0,0.00
2013-6-30,85,76,68,69,65,58,91,70,44,29.96,29.80,11,0,0,0.50
2013-7-1,84,74,62,65,57,52,85,58,35,30.05,29.89,6,0,0,0.00
2013-7-2,88,73,57,59,52,45,83,53,24,30.13,29.99,10,1,0,0.00
2013-7-3,91,75,57,55,50,45,78,46,21,30.06,29.90,5,0,0,0.00
2013-7-4,91,76,60,63,57,50,90,55,29,29.99,29.89,6,0,0,0.00
2013-7-5,93,80,62,66,59,56,85,53,31,29.99,29.84,5,1,0,0.00
2013-7-6,93,79,65,67,62,58,86,58,32,29.94,29.81,6,1,0,0.00
2013-7-7,94,82,70,69,67,64,87,63,38,29.96,29.86,7,1,0,0.00
2013-7-8,86,78,73,71,69,65,85,74,52,30.10,29.95,8,0,0,0.00
2013-7-9,93,82,71,70,68,65,89,65,43,30.13,30.00,10,1,0,0.00
2013-7-10,97,84,72,70,67,61,87,60,31,30.08,29.91,6,0,0,0.00
2013-7-11,96,83,73,71,66,62,84,59,33,29.99,29.86,5,0,0,0.00
2013-7-12,96,82,69,70,63,56,85,55,28,29.95,29.86,7,1,0,0.00
2013-7-13,98,85,68,66,62,59,79,48,29,29.97,29.82,7,1,0,0.00
2013-7-14,96,80,72,71,64,59,78,60,34,29.89,29.81,7,1,0,0.03
2013-7-15,75,71,66,71,67,63,92,87,78,30.03,29.85,5,0,0,0.47
2013-7-16,81,74,70,72,69,67,92,84,67,30.14,30.01,7,1,0,0.28
2013-7-17,82,73,69,73,68,66,92,84,64,30.18,30.10,9,1,0,0.15
2013-7-18,88,76,69,73,68,64,91,77,47,30.18,29.99,9,0,0,0.50
2013-7-19,92,79,68,70,66,62,92,66,40,30.08,29.90,5,0,0,0.00
2013-7-20,92,80,69,70,67,63,90,67,44,29.99,29.83,4,0,0,0.00
2013-7-21,92,81,71,72,69,65,90,69,48,29.94,29.85,6,1,0,0.00
2013-7-22,94,83,74,73,70,67,85,67,44,29.96,29.86,9,1,0,0.00
2013-7-23,96,84,77,72,68,61,81,60,32,29.97,29.84,5,1,0,0.00
2013-7-24,95,84,74,73,69,64,86,64,38,29.98,29.85,4,0,0,0.00
2013-7-25,96,85,73,70,67,60,86,58,32,30.00,29.93,6,1,0,0.00
2013-7-26,99,86,72,71,68,65,85,57,35,29.99,29.84,5,0,0,0.00
2013-7-27,90,81,72,70,67,63,78,63,47,29.97,29.87,9,1,0,0.00
2013-7-28,97,81,66,73,67,62,89,66,39,29.95,29.82,10,1,0,0.00
2013-7-29,98,84,76,71,68,62,82,61,31,29.98,29.89,15,1,0,0.00
2013-7-30,99,85,74,70,67,61,81,58,29,30.05,29.93,6,1,0,0.00
2013-7-31,101,85,73,68,63,58,80,51,25,30.07,29.90,5,0,0,0.00
2013-8-1,99,85,72,70,65,59,78,53,33,30.01,29.87,9,1,0,0.00
2013-8-2,100,86,71,66,62,57,74,48,26,29.95,29.84,9,0,0,0.00
2013-8-3,98,86,73,70,65,60,81,53,28,29.99,29.89,7,1,0,0.00
2013-8-4,96,85,73,70,68,65,84,60,38,30.03,29.90,17,1,0,0.00
2013-8-5,100,86,73,71,66,62,80,54,29,30.00,29.84,7,0,0,0.00
2013-8-6,102,87,72,72,67,62,84,55,28,29.92,29.77,6,1,0,0.00
2013-8-7,103,87,74,72,67,58,85,54,29,29.89,29.75,10,1,0,0.00
2013-8-8,101,86,73,70,66,59,84,55,26,29.87,29.75,5,1,0,0.00
2013-8-9,100,86,72,70,61,53,84,48,22,29.96,29.83,7,0,0,0.00
2013-8-10,99,84,70,70,65,55,80,55,31,30.03,29.91,7,1,0,0.00
2013-8-11,97,82,70,71,68,64,86,63,36,30.06,29.93,7,0,0,0.00
2013-8-12,95,83,72,69,67,64,88,62,38,30.05,29.92,5,0,0,0.00
2013-8-13,100,86,74,69,65,60,82,53,28,30.01,29.86,8,1,0,0.00
2013-8-14,100,84,75,70,68,63,82,60,32,29.98,29.85,6,1,0,0.00
2013-8-15,92,78,70,73,68,62,87,73,38,30.00,29.88,5,0,0,0.01
2013-8-16,92,77,66,71,64,56,91,67,31,30.08,29.94,10,1,0,0.01
2013-8-17,94,79,63,69,60,55,86,56,29,30.06,29.92,6,1,0,0.00
2013-8-18,95,79,62,62,58,54,75,50,30,30.05,29.96,7,0,0,0.00
2013-8-19,93,80,64,63,60,55,76,53,33,30.05,29.91,6,0,0,0.00
2013-8-20,94,81,65,67,61,55,80,55,29,30.02,29.92,12,1,0,0.00
2013-8-21,95,81,71,69,66,63,85,63,35,30.06,29.93,7,1,0,0.00
2013-8-22,94,82,70,70,66,63,87,61,37,30.07,29.91,6,0,0,0.00
2013-8-23,96,82,70,70,66,61,84,59,35,30.01,29.88,10,1,0,0.00
2013-8-24,97,84,70,69,66,63,82,58,36,30.04,29.91,9,0,0,0.00
2013-8-25,95,83,70,69,67,64,86,60,37,30.07,29.98,7,1,0,0.00
2013-8-26,90,78,73,71,68,66,86,71,46,30.10,30.00,8,1,0,0.01
2013-8-27,87,77,70,74,69,64,93,78,50,30.10,30.01,10,0,0,0.79
2013-8-28,95,80,70,70,67,63,91,66,36,30.11,29.98,4,0,0,0.00
2013-8-29,97,82,71,71,65,62,89,60,32,30.09,29.95,3,0,0,0.00
2013-8-30,99,84,71,67,64,62,79,55,31,30.02,29.87,6,0,0,0.00
2013-8-31,98,85,70,69,65,64,83,55,33,29.93,29.78,7,0,0,0.00
2013-9-1,98,84,72,71,66,64,85,57,34,29.90,29.78,6,0,0,0.00
2013-9-2,94,83,74,70,68,64,81,61,40,29.95,29.83,9,1,0,0.00
2013-9-3,97,82,69,69,66,61,88,64,31,30.00,29.87,5,0,0,0.02
2013-9-4,96,79,71,71,67,64,91,69,37,30.04,29.93,7,0,0,0.06
2013-9-5,94,82,70,70,67,64,88,64,39,30.10,29.98,6,0,0,0.00
2013-9-6,94,82,70,71,67,64,88,63,39,30.08,29.94,10,0,0,0.00
2013-9-7,93,79,68,74,68,63,88,71,41,30.03,29.88,6,0,0,0.03
2013-9-8,88,76,71,70,68,66,90,79,50,29.97,29.88,9,0,0,0.06
2013-9-9,88,76,68,69,67,64,92,74,46,30.00,29.89,12,1,0,0.00
2013-9-10,85,74,69,72,69,66,92,84,58,30.06,29.96,6,1,0,0.11
2013-9-11,87,76,68,72,68,63,93,76,48,30.11,29.99,7,1,0,0.01
2013-9-12,91,77,66,69,64,61,92,68,38,30.08,29.93,7,1,0,0.00
2013-9-13,93,80,68,69,62,58,89,60,32,29.98,29.82,10,1,0,0.00
2013-9-14,92,79,65,67,63,57,86,60,38,29.94,29.83,12,1,0,0.00
2013-9-15,90,79,68,69,66,64,88,67,46,30.01,29.90,6,1,0,0.00
2013-9-16,89,76,70,70,68,65,89,78,51,30.05,29.97,7,1,0,0.01
2013-9-17,88,77,71,71,68,66,92,75,48,30.07,29.93,9,1,0,0.00
2013-9-18,90,78,70,70,68,63,91,72,44,30.01,29.87,9,1,0,0.00
2013-9-19,84,77,73,75,70,68,90,81,63,29.94,29.81,6,1,0,0.18
2013-9-20,78,72,67,72,68,64,92,89,81,29.90,29.80,6,1,0,1.18
2013-9-21,82,70,56,64,58,49,89,69,36,29.98,29.87,15,2,0,0.00
2013-9-22,83,66,50,53,50,46,89,60,29,29.95,29.82,8,1,0,0.00
2013-9-23,88,68,50,55,51,46,89,59,27,29.88,29.78,4,0,0,0.00
2013-9-24,93,74,56,62,57,51,85,58,31,29.96,29.85,3,0,0,0.00
2013-9-25,93,77,62,65,60,57,85,59,35,29.91,29.77,3,0,0,0.00
2013-9-26,90,77,64,70,61,56,88,60,34,29.89,29.80,6,1,0,0.00
2013-9-27,88,79,73,73,70,67,85,76,55,29.88,29.78,14,2,0,0.00
2013-9-28,87,77,65,73,70,62,90,79,61,30.01,29.84,10,2,0,0.02
2013-9-29,75,66,58,62,59,54,89,79,59,30.07,29.96,6,1,0,0.00
2013-9-30,90,70,52,63,56,49,92,66,31,29.98,29.82,2,0,0,0.00
2013-10-1,89,76,60,71,64,55,90,70,46,29.91,29.83,7,1,0,0.00
2013-10-2,89,79,72,70,68,64,91,72,49,29.93,29.83,6,1,0,0.00
2013-10-3,90,79,70,70,67,64,86,68,46,29.91,29.80,12,1,0,0.00
2013-10-4,89,78,72,69,67,66,84,70,50,29.89,29.80,10,2,0,0.00
2013-10-5,82,70,58,69,59,42,83,67,51,30.09,29.86,10,2,0,0.00
2013-10-6,78,61,47,49,43,37,89,58,24,30.20,30.07,11,1,0,0.36
2013-10-7,83,63,44,48,42,38,83,54,22,30.22,30.09,5,0,0,0.00
2013-10-8,84,65,47,50,46,42,84,56,28,30.12,30.00,4,0,0,0.00
2013-10-9,78,62,50,59,53,46,90,73,48,30.08,29.97,6,0,0,0.00
2013-10-10,82,72,64,64,61,58,87,71,50,30.03,29.88,7,1,0,0.00
2013-10-11,85,76,70,71,67,64,87,75,54,29.93,29.83,10,1,0,0.00
2013-10-12,88,79,73,72,70,68,90,76,55,30.00,29.88,5,0,0,0.00
2013-10-13,74,69,64,71,66,62,93,91,84,30.16,29.99,6,1,0,1.68
2013-10-14,83,73,69,69,67,65,93,82,59,30.09,29.91,6,1,0,0.02
2013-10-15,78,68,53,68,63,49,89,84,71,30.03,29.88,5,1,0,0.00
2013-10-16,58,54,50,55,51,48,92,90,86,30.15,29.98,5,1,0,1.23
2013-10-17,73,58,46,51,48,43,92,71,44,30.20,30.01,4,0,0,0.00
2013-10-18,74,63,52,63,57,48,91,80,66,30.09,29.89,6,1,0,0.00
2013-10-19,65,52,42,48,41,36,87,69,38,30.25,30.09,7,1,0,0.00
2013-10-20,74,56,40,53,45,38,91,71,47,30.15,29.96,5,1,0,0.00
2013-10-21,76,65,53,64,57,48,89,77,61,30.13,29.94,10,1,0,0.00
2013-10-22,72,58,46,51,43,35,84,60,28,30.22,30.12,6,1,0,0.00
2013-10-23,81,59,42,50,43,38,87,61,26,30.24,30.14,0,0,0,0.00
2013-10-24,80,61,44,49,45,40,86,61,32,30.28,30.17,4,0,0,0.00
2013-10-25,75,62,46,60,52,44,92,74,50,30.35,30.23,4,0,0,0.00
2013-10-26,77,68,62,63,61,57,87,78,62,30.22,30.07,5,1,0,0.00
2013-10-27,74,66,59,63,60,56,90,81,66,30.13,30.01,4,0,0,0.03
2013-10-28,80,71,65,65,64,61,91,78,59,30.07,29.97,10,1,0,0.00
2013-10-29,80,73,69,68,66,63,88,78,63,30.05,29.95,8,2,0,0.00
2013-10-30,80,73,69,70,68,65,91,85,70,29.99,29.79,4,0,0,0.10
2013-10-31,76,66,46,67,50,36,92,63,25,29.92,29.76,7,1,0,0.04
2013-11-1,79,60,42,48,40,36,84,52,22,30.18,29.90,7,0,0,0.00
2013-11-2,70,56,42,42,37,31,79,52,27,30.36,30.18,10,1,0,0.00
2013-11-3,67,54,36,50,38,32,87,60,35,30.26,30.05,12,1,0,0.00
2013-11-4,63,60,58,60,56,50,92,85,70,30.08,29.99,4,0,0,0.08
2013-11-5,71,67,63,65,63,60,92,88,81,30.03,29.92,4,0,0,0.00
2013-11-6,67,56,47,64,50,37,93,78,61,30.39,29.98,14,1,0,0.07
2013-11-7,62,50,36,43,36,28,87,62,35,30.55,30.40,7,1,0,0.00
2013-11-8,61,53,45,45,39,31,84,61,33,30.44,30.18,10,1,0,0.01
2013-11-9,64,58,51,55,52,43,87,78,69,30.22,30.14,6,1,0,0.00
2013-11-10,64,58,48,58,54,45,91,88,80,30.34,30.21,2,0,0,0.00
2013-11-11,74,58,45,55,50,42,93,77,52,30.34,30.20,3,0,0,0.00
2013-11-12,56,48,37,52,40,21,91,75,51,30.70,30.31,14,3,0,0.00
2013-11-13,53,39,29,29,24,19,80,57,37,30.72,30.46,6,1,0,0.00
2013-11-14,61,46,28,45,33,23,84,62,30,30.46,30.10,7,1,0,0.00
2013-11-15,77,63,52,57,52,45,89,70,46,30.09,29.88,6,0,0,0.00
2013-11-16,73,67,58,66,61,53,89,82,70,29.91,29.76,6,1,0,0.00
2013-11-17,84,70,52,67,56,45,92,66,29,29.99,29.79,6,1,0,0.00
2013-11-18,76,63,48,59,51,42,82,66,51,30.15,29.98,4,0,0,0.00
2013-11-19,72,60,49,53,48,42,85,65,41,30.16,30.00,6,1,0,0.00
2013-11-20,69,63,57,64,58,52,93,86,77,30.02,29.90,5,1,0,0.00
2013-11-21,76,69,59,68,65,55,93,86,74,30.10,29.93,6,1,0,0.00
2013-11-22,55,35,30,51,32,28,91,90,86,30.50,30.10,11,3,0,0.51
2013-11-23,36,33,31,34,31,28,92,91,89,30.60,30.49,13,2,0,0.09
2013-11-24,36,33,31,33,30,28,91,88,84,30.61,30.38,14,2,0,0.52
2013-11-25,38,35,31,35,32,29,92,90,86,30.38,30.18,9,2,0,0.27
2013-11-26,48,39,33,33,30,26,89,71,50,30.47,30.25,10,3,0,0.01
2013-11-27,48,37,28,27,22,16,83,59,31,30.57,30.43,6,1,0,0.00
2013-11-28,56,36,28,31,13,-100,85,57,34,30.52,30.40,6,-10,0,0.00
2013-11-29,57,44,27,47,38,23,88,78,65,30.59,30.41,3,0,0,0.00
2013-11-30,64,56,48,54,50,44,90,80,67,30.41,30.22,5,1,0,0.00
2013-12-1,68,60,53,57,54,50,90,83,68,30.23,29.97,5,1,0,0.00
2013-12-2,80,60,46,56,46,38,93,65,24,29.97,29.72,4,0,0,0.00
2013-12-3,84,59,41,46,40,35,91,57,21,29.77,29.65,4,0,0,0.00
2013-12-4,82,63,49,63,53,41,90,73,44,29.82,29.69,1,0,0,0.00
2013-12-5,61,38,26,59,31,22,93,78,65,30.18,29.80,10,3,0,0.00
2013-12-6,30,27,22,27,23,18,89,84,80,30.56,30.15,11,4,0,0.02
2013-12-7,26,24,21,20,18,14,82,79,74,30.60,30.34,11,3,0,0.00
2013-12-8,56,36,25,41,30,20,91,80,56,30.33,30.10,4,0,0,0.01
2013-12-9,39,35,29,37,32,26,92,91,87,30.49,30.13,15,2,0,0.03
2013-12-10,44,33,25,25,23,21,92,70,41,30.62,30.43,7,1,0,0.00
2013-12-11,58,40,24,32,27,20,85,63,37,30.65,30.42,6,1,0,0.00
2013-12-12,53,41,29,34,30,23,81,65,46,30.66,30.35,6,1,0,0.00
2013-12-13,50,46,41,48,40,32,92,82,64,30.35,29.96,5,1,0,0.07
2013-12-14,51,43,35,39,32,26,93,66,46,30.43,29.95,10,2,0,0.01
2013-12-15,60,42,27,31,27,21,82,59,31,30.49,30.34,4,0,0,0.00
2013-12-16,68,44,27,35,29,22,86,61,29,30.39,30.27,5,0,0,0.00
2013-12-17,71,48,30,39,32,25,86,61,25,30.40,30.30,3,0,0,0.00
2013-12-18,67,52,33,52,43,29,91,74,50,30.35,30.06,11,2,0,0.00
2013-12-19,66,60,52,58,54,49,91,81,68,30.05,29.83,12,3,0,0.00
2013-12-20,68,64,44,64,59,41,90,84,73,29.87,29.64,9,2,0,0.01
2013-12-21,66,51,42,54,40,35,94,69,34,29.90,29.59,7,1,0,0.80
2013-12-22,49,42,33,37,32,24,86,67,52,30.45,29.91,9,2,0,0.00
2013-12-23,55,38,26,29,25,20,83,62,32,30.61,30.44,3,0,0,0.00
2013-12-24,59,42,25,34,26,21,88,58,33,30.60,30.31,7,1,0,0.00
2013-12-25,61,46,33,47,38,30,90,76,61,30.48,30.28,10,1,0,0.00
2013-12-26,53,43,31,39,35,28,88,73,57,30.50,30.39,5,1,0,0.00
2013-12-27,53,46,38,44,40,34,90,78,58,30.49,30.37,5,0,0,0.02
2013-12-28,60,48,34,47,41,31,91,80,62,30.37,30.06,8,1,0,0.00
2013-12-29,56,44,28,48,39,25,88,82,72,30.35,30.02,9,2,0,0.00
2013-12-30,46,35,27,29,24,20,86,66,47,30.48,30.31,9,1,0,0.00
2013-12-31,58,42,29,33,29,25,84,64,37,30.54,30.29,5,1,0,0.00
2014-1-1,67,48,32,52,40,27,91,74,57,30.29,30.06,10,2,0,0.00
2014-1-2,48,36,25,33,24,20,79,63,41,30.54,30.25,11,2,0,0.00